Probability
2 2 1 0 0 0 0 0 0 0 0 0 0 0 0 0 0 0 0 0 0 0 0 0 0 0 0 0 0 0 0 0 0 0 0 0 0 0 0 0 0 0 0
3 2 1 0 0 0 0 0 0 0 0 0 0 0 0 0 0 0 0 0 0 0 0 0 0 0 0 0 0 0 0 0 0 0 0 0 0 0 0 0 0 0 0
5 3 1 0 0 0 0 0 0 0 0 0 0 0 0 0 0 0 0 0 0 0 0 0 0 0 0 0 0 0 0 0 0 0 0 0 0 0 0 0 0 0 0
6 4 1 0 0 0 0 0 0 0 0 0 0 0 0 0 0 0 0 0 0 0 0 0 0 0 0 0 0 0 0 0 0 0 0 0 0 0 0 0 0 0 0
6 5 2 0 0 0 0 0 0 0 0 0 0 0 0 0 0 0 0 0 0 0 0 0 0 0 0 0 0 0 0 0 0 0 0 0 0 0 0 0 0 0 0
5 4 1 0 0 0 0 0 0 0 0 0 0 0 0 0 0 0 0 0 0 0 0 0 0 0 0 0 0 0 0 0 0 0 0 0 0 0 0 0 0 0 0
2 1 1 1 1 0 0 0 0 0 0 0 0 0 0 0 0 0 0 0 0 0 0 0 0 0 0 0 0 0 0 0 0 0 0 0 0 0 0 0 0 0 0
0 0 1 2 2 1 0 0 0 0 0 0 0 0 0 0 0 0 0 0 0 0 0 0 0 0 0 0 0 0 0 0 0 0 0 0 0 0 0 0 0 0 0
0 0 1 2 3 2 1 0 0 0 0 0 0 0 0 0 0 0 0 0 0 0 0 0 0 0 0 0 0 0 0 0 0 0 0 0 0 0 0 0 0 0 0
0 0 1 2 3 3 2 1 0 0 0 0 0 0 0 0 0 0 0 0 0 0 0 0 0 0 0 0 0 0 0 0 0 0 0 0 0 0 0 0 0 0 0
0 0 1 2 3 3 2 1 0 0 0 0 0 0 0 0 0 0 0 0 0 0 0 0 0 0 0 0 0 0 0 0 0 0 0 0 0 0 0 0 0 0 0
0 0 0 1 2 2 1 0 0 0 0 0 0 0 0 0 0 0 0 0 0 0 0 0 0 0 0 0 0 0 0 0 0 0 0 0 0 0 0 0 0 0 0
0 0 0 0 1 1 0 0 0 0 0 0 0 0 0 0 0 0 0 0 0 0 0 0 0 0 0 0 0 0 0 0 0 0 0 0 0 0 0 0 0 0 0
0 0 0 0 0 0 0 0 0 0 0 0 0 0 0 0 0 0 0 0 0 0 0 0 0 0 0 0 0 0 0 0 0 0 0 0 0 0 0 0 0 0 0
0 0 0 0 0 0 0 0 0 0 0 0 0 0 0 0 0 0 0 0 0 0 0 0 0 0 0 0 0 0 0 0 0 0 0 0 0 0 0 0 0 0 0
0 0 0 0 0 0 0 0 0 0 0 0 0 0 0 0 0 0 0 0 0 0 0 0 0 0 0 0 0 0 0 0 0 0 0 0 0 0 0 0 0 0 0
0 0 0 0 0 0 0 0 0 0 0 0 0 0 0 0 0 0 0 0 0 0 0 0 0 0 0 0 0 0 0 0 0 0 0 0 0 0 0 0 0 0 0
0 0 0 0 0 0 0 0 0 0 0 0 0 0 0 0 0 0 0 0 0 0 0 0 0 0 0 0 0 0 0 0 0 0 0 0 0 0 0 0 0 0 0
0 0 0 0 0 0 0 0 0 0 0 0 0 0 0 0 0 0 0 0 0 0 0 0 0 0 0 0 0 0 0 0 0 0 0 0 0 0 0 0 0 0 0
0 0 0 0 0 0 0 0 0 0 0 0 0 0 0 0 0 0 0 0 0 0 0 0 0 0 0 0 0 0 0 0 0 0 0 0 0 0 0 0 0 0 0
0 0 0 0 0 0 0 0 0 0 0 0 0 0 0 0 0 0 0 0 0 0 0 0 0 0 0 0 0 0 0 0 0 0 0 0 0 0 0 0 0 0 0
0 0 0 0 0 0 0 0 0 0 0 0 0 0 0 0 0 0 0 0 0 0 0 0 0 0 0 0 0 0 0 0 0 0 0 0 0 0 0 0 0 0 0
0 0 0 0 0 0 0 0 0 0 0 0 0 0 0 0 0 0 0 0 0 0 0 0 0 0 0 0 0 0 0 0 0 0 0 0 0 0 0 0 0 0 0
0 0 0 0 0 0 0 0 0 0 0 0 0 0 0 0 0 0 0 0 0 0 0 0 0 0 0 0 0 0 0 0 0 0 0 0 0 0 0 0 0 0 0
0 0 0 0 0 0 0 0 0 0 0 0 0 0 0 0 0 0 0 0 0 0 0 0 0 0 0 0 0 0 0 0 0 0 0 0 0 0 0 0 0 0 0
0 0 0 0 0 0 0 0 0 0 0 0 0 0 0 0 0 0 0 0 0 0 0 0 0 0 0 0 0 0 0 0 0 0 0 0 0 0 0 0 0 0 0
Wind_Speed
10 9 8 7 6 5 4 6 4 4 3 2 1 1 1 1 1 1 2 3 3 4 4 3 3 2 2 2 3 1 2 2 2 2 2 2 2 2 3 2 1 2 2
10 10 9 7 6 5 4 5 5 4 4 2 0 0 0 1 1 0 1 2 3 3 4 3 3 2 2 2 2 1 1 2 2 1 1 1 1 1 3 2 2 3 2
11 13 10 8 6 6 5 4 4 5 5 3 1 2 1 1 1 1 1 1 1 2 2 4 3 3 2 1 2 1 1 1 2 1 1 0 1 2 2 2 2 2 2
8 10 9 9 8 6 5 5 5 4 4 3 2 1 1 1 1 1 1 1 1 1 1 3 4 3 2 2 2 2 1 1 1 2 1 1 0 1 2 2 1 2 3
8 9 9 8 8 7 5 4 5 5 4 3 2 1 1 2 1 2 2 2 1 1 1 2 3 3 2 2 3 2 2 1 1 1 1 2 1 1 0 1 2 2 1
8 9 9 8 7 7 6 5 5 5 4 2 2 2 1 1 2 2 1 2 1 1 2 2 2 2 2 3 3 2 2 1 1 1 1 1 1 1 1 1 1 1 1
9 9 9 8 8 8 7 5 6 5 4 3 3 2 2 2 1 1 1 1 1 1 2 2 2 2 2 2 2 2 2 1 1 1 1 1 1 1 1 1 1 2 2
8 9 10 9 8 8 8 6 6 6 5 4 3 2 2 1 0 1 1 1 1 1 1 1 1 1 1 2 2 2 2 2 2 2 1 1 1 1 1 0 1 1 2
7 8 9 9 9 9 8 7 7 6 6 4 3 3 1 1 0 1 1 1 1 1 1 2 1 0 0 0 1 2 2 2 1 2 2 1 1 1 1 0 0 0 1
7 8 9 9 9 8 8 8 7 7 6 5 4 3 2 1 1 1 1 2 2 1 2 2 2 1 1 1 1 2 2 1 1 1 1 1 1 1 1 1 1 1 1
7 8 8 8 8 8 8 7 7 6 6 5 4 4 3 2 2 2 1 2 2 2 2 1 2 1 1 1 1 1 2 2 2 2 1 1 1 0 1 1 1 1 1
7 8 8 8 8 8 8 8 8 7 6 5 4 4 4 4 3 3 3 3 2 2 2 1 1 1 1 1 1 1 1 1 2 2 1 1 1 1 1 1 1 1 1
7 8 8 8 8 8 8 8 8 7 7 6 4 4 5 4 3 2 2 2 2 2 2 1 1 0 0 1 1 1 2 1 1 1 1 1 1 1 1 0 1 1 1
7 8 8 8 8 8 8 7 7 7 7 6 5 5 4 4 3 2 1 1 1 2 2 1 1 0 0 0 1 2 2 2 2 1 0 0 1 1 2 1 2 2 2
8 8 8 8 9 8 8 8 7 8 7 7 6 5 4 3 3 2 2 1 1 2 2 2 2 1 1 2 2 3 3 3 2 1 1 1 2 2 1 1 1 2 2
7 9 10 9 10 10 9 8 8 8 8 7 7 5 4 4 3 2 2 1 1 2 2 2 2 2 2 3 3 3 3 4 3 2 1 1 2 3 2 2 3 2 2
5 7 9 9 10 11 10 9 9 8 7 7 7 6 5 4 4 3 2 2 2 2 1 2 2 1 2 3 3 4 3 4 4 3 2 2 2 2 0 2 4 4 5
3 5 7 8 9 9 9 9 9 8 8 7 7 6 6 5 4 3 2 2 2 1 1 1 1 1 2 2 3 4 3 4 3 2 1 1 3 3 2 2 2 2 1
2 3 5 6 8 8 9 10 10 9 8 7 7 7 7 6 5 4 3 2 1 0 0 0 0 0 2 2 3 3 3 3 2 1 2 2 3 5 5 3 3 3 3
1 2 3 5 6 7 8 9 9 9 8 8 7 7 7 6 5 5 4 3 3 2 1 1 1 1 2 4 4 4 2 2 2 2 3 6 5 5 6 3 3 3 4
1 1 2 3 4 6 7 8 8 9 8 8 7 6 6 6 5 4 3 3 3 3 2 2 2 3 3 4 4 4 2 2 3 2 3 3 6 5 5 3 2 3 4
2 1 1 2 3 5 6 7 7 7 8 8 7 7 6 6 6 5 3 3 3 3 3 2 2 3 4 4 3 3 3 3 2 2 3 3 5 5 4 3 3 5 5
4 2 2 3 3 4 5 6 6 8 9 9 8 7 7 5 5 5 4 3 2 2 2 2 2 2 3 3 3 2 2 3 2 2 3 2 3 3 2 2 4 4 2
5 3 3 4 4 5 5 6 7 8 9 9 8 7 7 6 5 4 3 3 2 2 1 2 2 2 3 3 2 2 2 2 2 1 0 1 2 2 2 2 2 2 2
5 4 4 5 5 5 6 6 8 9 9 9 8 7 6 7 6 4 3 3 3 3 3 2 2 3 3 3 3 2 2 2 2 3 1 1 1 2 2 2 2 2 2
6 6 6 5 5 6 6 7 8 9 10 9 9 7 6 6 6 7 5 7 6 8 9 7 5 4 6 6 4 3 3 4 4 3 1 1 2 2 2 2 2 2 2
Wind_Direction
164 147 140 137 147 147 134 126 128 118 104 72 21 25 25 343 50 40 42 346 344 357 340 344 341 345 339 334 330 333 325 322 315 318 307 276 228 212 227 225 204 228 223
155 141 145 147 161 148 139 137 132 118 110 114 17 189 63 300 110 41 62 353 355 3 347 342 328 332 318 337 337 343 349 327 336 330 336 330 324 276 227 207 200 220 212
161 154 159 153 157 152 148 144 132 134 125 131 82 18 355 307 41 26 62 314 357 28 349 330 329 327 341 1 334 6 16 338 324 342 45 44 311 304 283 231 208 197 192
148 148 152 153 159 152 148 152 138 126 117 115 89 333 332 20 22 352 25 325 58 44 11 347 338 341 355 3 350 32 352 353 333 332 339 341 34 307 313 319 298 225 199
148 148 151 152 155 146 143 143 130 123 115 112 135 277 13 359 360 355 3 349 37 38 48 5 340 347 357 3 0 6 3 3 347 337 333 343 341 293 297 312 322 318 253
149 148 143 142 141 133 137 136 130 125 130 156 167 166 135 311 311 322 349 332 326 41 50 24 349 356 10 6 360 350 348 351 340 339 342 359 350 340 359 324 308 297 287
150 148 145 149 143 144 149 154 148 147 156 179 189 182 174 259 278 323 337 320 344 41 36 19 350 5 14 359 355 331 324 330 335 330 326 336 329 341 346 337 319 314 300
151 153 152 153 152 157 162 169 162 162 167 188 191 190 185 218 316 356 326 331 352 44 34 358 320 1 15 356 350 326 332 357 355 349 348 331 316 343 343 345 353 328 311
153 154 154 158 160 164 169 175 169 171 175 187 193 196 187 138 65 307 298 332 330 9 12 321 301 290 116 360 357 337 347 354 344 340 339 339 322 351 318 344 144 169 306
161 160 158 163 166 168 171 175 176 179 175 183 198 174 174 176 184 266 356 345 330 348 312 311 319 12 47 104 66 327 329 335 314 262 277 318 341 351 328 326 296 227 213
166 162 159 164 165 165 168 173 179 183 177 183 186 172 178 192 213 205 209 239 262 270 274 292 313 4 19 37 88 310 318 320 321 326 336 330 313 353 335 339 319 279 243
165 162 161 163 166 172 175 178 182 182 175 179 179 181 181 191 215 208 207 225 235 250 262 264 283 353 21 358 359 313 324 323 328 325 327 307 326 9 301 305 301 285 256
167 165 163 169 173 177 180 181 180 176 168 173 184 191 196 197 200 206 202 232 248 255 258 256 253 257 269 322 317 302 290 282 283 306 326 326 355 334 310 294 305 301 302
174 172 169 174 175 176 181 184 179 172 170 171 185 203 206 181 178 181 191 258 282 297 296 303 296 270 279 8 340 337 329 313 295 284 262 152 45 22 4 354 350 341 337
180 179 177 181 178 180 183 185 178 175 175 171 183 197 200 169 164 165 201 243 277 286 301 322 329 343 8 34 22 347 329 319 309 308 291 150 146 127 108 25 355 355 343
192 187 184 186 184 185 187 184 178 178 176 174 179 183 182 163 165 178 196 209 251 293 323 323 323 340 26 52 33 359 327 318 314 313 312 184 169 170 187 232 255 255 274
201 193 189 190 189 189 186 182 178 175 177 175 172 168 169 164 170 191 191 198 229 242 254 292 322 25 65 53 24 352 314 296 300 314 325 351 58 92 60 261 264 264 258
219 198 192 187 188 189 178 173 169 175 179 172 168 163 165 168 171 182 185 205 238 210 178 281 322 39 60 37 4 337 297 281 284 296 327 27 57 42 24 350 329 307 289
249 204 195 187 188 185 176 171 173 176 173 170 169 164 164 166 171 180 186 191 203 208 197 219 242 115 70 40 13 347 292 282 283 11 43 47 67 41 35 20 351 345 337
286 206 196 188 184 177 169 172 173 174 173 168 167 161 159 162 168 174 177 178 177 188 203 200 191 109 93 74 46 15 323 329 349 46 70 63 67 48 41 25 4 351 334
328 199 191 189 182 170 166 176 176 177 166 157 156 156 155 157 159 163 170 171 168 181 199 192 161 124 108 103 70 44 21 358 355 22 53 55 47 43 35 28 14 351 336
326 258 210 195 178 170 171 179 178 164 150 149 154 157 155 160 156 153 163 167 171 187 196 191 170 141 125 116 102 71 45 17 16 23 47 47 31 30 26 20 9 1 355
311 279 229 205 197 188 184 181 168 154 147 150 155 156 152 150 148 154 164 175 187 187 186 168 153 130 112 108 94 88 42 28 44 50 51 31 13 6 18 31 18 11 8
306 281 244 215 212 203 194 178 162 157 153 157 159 161 160 157 149 144 151 152 162 168 166 138 132 121 100 81 48 15 15 13 25 358 303 330 358 12 17 31 26 29 40
298 287 261 235 222 208 197 180 169 166 166 166 167 170 165 154 141 119 90 106 78 90 103 87 80 93 105 101 89 72 39 11 5 343 358 38 37 38 36 33 30 25 24
298 286 273 253 236 219 206 186 177 176 176 176 176 171 159 150 143 133 106 69 99 96 90 93 103 90 107 123 104 76 39 11 1 15 40 50 46 38 30 26 14 12 10